Weather History for Merida, Mexico

Change the Weather History Date:

Saturday, January 12, 2013

  Actual Average Record
Temperature  
Mean Temperature 81 °F -  
Max Temperature 94 °F 84 °F 96 °F (2005)
Min Temperature 68 °F 62 °F 51 °F (1999)
Cooling Degree Days 16    
Growing Degree Days 31 (Base 50)    
Moisture  
Dew Point 65 °F    
Average Humidity 64    
Maximum Humidity 94    
Minimum Humidity 31    
Precipitation  
Precipitation 0.00 in - - ()
Sea Level Pressure  
Sea Level Pressure 29.93 in    
Wind  
Wind Speed 10 mph ()    
Max Wind Speed 21 mph    
Max Gust Speed -    
Visibility 5.5 miles    
Events      
Averages and records for this station are not official NWS values.
T = Trace of Precipitation, MM = Missing Value Source: Averaged Metar Reports

Daily Weather History Graph

Daily Weather History Graph

Search for Another Location

Airport:

Trip Planner

Search our weather history database for the weather conditions in past years. The results will help you decide how hot, cold, wet, or windy it might be!

Date:

Astronomy

Jan. 12, 2013 Rise Set
Actual Time 6:37 AM CST 5:36 PM CST
Civil Twilight 6:14 AM CST 6:00 PM CST
Nautical Twilight 5:46 AM CST 6:27 PM CST
Astronomical Twilight 5:19 AM CST 6:54 PM CST
Moon 7:08 AM CST (1/12) 6:49 PM CST (1/12)
Length of Visible Light 11h 46m
Length of Day
10h 58m
New Moon, 1% of the Moon is Illuminated
Jan 12
New Moon
Jan 18
First Quarter
Jan 26
Full
Feb 3
Last Quarter
Feb 10
New

Hourly Weather History & Observations

Time (CST) Temp. Heat Index Dew Point Humidity Pressure Visibility Wind Dir Wind Speed Gust Speed Precip Events Conditions
12:47 AM 73.4 °F - 66.2 °F 78% 30.00 in 7.0 mi East 11.5 mph - N/A   Clear
1:46 AM 73.4 °F - 66.2 °F 78% 29.99 in 7.0 mi ESE 9.2 mph - N/A   Clear
2:47 AM 71.6 °F - 66.2 °F 83% 29.99 in 7.0 mi ESE 9.2 mph - N/A   Clear
2:50 AM 72 °F - 69 °F 85% 29.98 in 3 mi SE 8.9 mph - -   Scattered Clouds
3:44 AM 68.0 °F - 66.2 °F 94% 29.95 in 2.0 mi ESE 8.1 mph - N/A   Clear
4:44 AM 68.0 °F - 66.2 °F 94% 29.95 in 2.0 mi ESE 9.2 mph - N/A   Clear
5:47 AM 68.0 °F - 64.4 °F 88% 29.97 in 2.0 mi East 8.1 mph - N/A   Clear
5:50 AM 69 °F - 67 °F 93% 29.96 in 3 mi SE 2.2 mph - -   Smoke
6:46 AM 66.2 °F - 64.4 °F 94% 29.97 in 2.0 mi East 8.1 mph - N/A   Mostly Cloudy
7:47 AM 69.8 °F - 68.0 °F 94% 29.99 in 2.5 mi East 8.1 mph - N/A   Mostly Cloudy
8:10 AM 71.6 °F - 68.0 °F 88% 29.99 in 3.0 mi East 10.4 mph - N/A   Clear
8:48 AM 75.2 °F - 68.0 °F 78% 29.99 in 5.0 mi East 12.7 mph - N/A   Clear
8:50 AM 76 °F - 69 °F 74% 30.01 in 6 mi SE 8.9 mph - -   Smoke
9:48 AM 82.4 °F 84.6 °F 66.2 °F 58% 29.99 in 7.0 mi ESE 19.6 mph - N/A   Partly Cloudy
10:50 AM 86.0 °F 87.3 °F 64.4 °F 48% 29.97 in 7.0 mi ESE 17.3 mph - N/A   Scattered Clouds
11:47 AM 87.8 °F 88.5 °F 62.6 °F 43% 29.95 in 7.0 mi SE 19.6 mph - N/A   Mostly Cloudy
11:50 AM 89 °F - 70 °F 43% 29.94 in 6 mi ESE 6.7 mph - -   Partly Cloudy
12:46 PM 89.6 °F 88.9 °F 59.0 °F 36% 29.90 in 7.0 mi East 20.7 mph - N/A   Mostly Cloudy
1:46 PM 91.4 °F 90.7 °F 59.0 °F 34% 29.87 in 7.0 mi ESE 17.3 mph - N/A   Mostly Cloudy
2:42 PM 89.6 °F 88.9 °F 59.0 °F 36% 29.89 in 7.0 mi SE 17.3 mph - N/A   Mostly Cloudy
2:50 PM 92 °F - 65 °F 32% 29.87 in 6 mi ESE 6.7 mph - -   Partly Cloudy
3:50 PM 91.4 °F 89.9 °F 57.2 °F 31% 29.85 in 7.0 mi SE 13.8 mph - N/A   Mostly Cloudy
4:48 PM 89.6 °F 87.7 °F 55.4 °F 31% 29.86 in 7.0 mi ESE 15.0 mph - N/A   Mostly Cloudy
5:49 PM 86.0 °F 85.4 °F 59.0 °F 40% 29.88 in 7.0 mi SE 13.8 mph - N/A   Mostly Cloudy
5:50 PM 87 °F - 70 °F 47% 29.88 in 6 mi ESE 8.9 mph - -   Scattered Clouds
6:45 PM 84.2 °F 84.4 °F 60.8 °F 45% 29.87 in 7.0 mi SE 11.5 mph - N/A   Clear
7:47 PM 82.4 °F 82.9 °F 60.8 °F 48% 29.89 in 7.0 mi SE 13.8 mph - N/A   Clear
8:50 PM 81 °F - 70 °F 63% 29.91 in 3 mi ESE 6.7 mph - -   Scattered Clouds
8:50 PM 78.8 °F - 62.6 °F 57% 29.91 in 7.0 mi SE 15.0 mph - N/A   Clear
9:45 PM 78.8 °F - 64.4 °F 61% 29.90 in 7.0 mi SE 13.8 mph - N/A   Clear
10:49 PM 77.0 °F - 66.2 °F 69% 29.91 in 7.0 mi SE 10.4 mph - N/A   Clear
11:44 PM 75.2 °F - 68.0 °F 78% 29.94 in 7.0 mi ESE 9.2 mph - N/A   Clear
11:50 PM 76 °F - 72 °F 84% 29.91 in 3 mi SE 8.9 mph - -   Scattered Clouds